Weather observations for the past three days for
Brookings, Brookings Municipal Airport
Metric (Imperial)
Date Time (cdt) Wind (kph) Vis. (km) Weather Sky Cond. Temperature (ºC) Relative Humidity Wind Chill (°C) Heat Index (°C) Pressure Precipitation (cm)
Air Dwpt 6 hour altimeter (cm) sea level (mb) 1 hr 3 hr 6 hr
Max. Min.
03 19:56 W 15 16.09 Fair CLR 16.7 -0.6 31% 75.46 1007.1
03 18:56 W 19 16.09 Fair CLR 20 -2.8 21.1 18.3 21% 75.49 1007.5
03 17:56 W 24 16.09 Fair CLR 20.6 -2.8 21% 75.54 1008.1
03 16:56 W 26 16.09 Fair CLR 20.6 -1.1 23% 75.57 1008.5
03 15:56 NW 17 G 31 16.09 Fair CLR 20 -1.1 24% 75.64 1009.3
03 14:56 NW 17 G 33 16.09 Fair CLR 19.4 0 27% 75.72 1010.5
03 13:56 NW 28 G 37 16.09 Fair CLR 18.9 0.6 29% 75.74 1010.8
03 12:56 NW 28 G 41 16.09 Fair CLR 18.3 0 18.3 6.1 29% 75.82 1011.7
03 11:56 NW 33 G 43 16.09 Fair and Breezy CLR 17.8 1.7 34% 75.87 1012.1
03 10:56 NW 20 16.09 Fair CLR 16.7 3.3 41% 75.87 1012.4
03 09:56 N 22 16.09 Fair CLR 15.6 3.3 44% 75.9 1012.6
03 08:56 NW 17 16.09 Fair CLR 13.3 4.4 55% 75.87 1012.5
03 07:56 NW 17 16.09 Fair CLR 9.4 3.9 69% 7 75.84 1012.4
03 06:56 NW 6 16.09 Fair CLR 6.7 2.8 12.2 5 76% 75.79 1011.8
03 05:56 NW 9 16.09 Fair CLR 5.6 1.7 76% 4 75.74 1011.0
03 04:56 NW 15 16.09 Fair CLR 7.2 2.2 71% 5 75.72 1010.7
03 03:56 NW 13 16.09 Fair CLR 8.3 2.8 69% 6 75.67 1010.1
03 02:56 NW 15 16.09 Fair CLR 10 2.8 61% 8 75.67 1009.7
03 01:56 W 13 16.09 Fair CLR 10.6 3.3 61% 75.64 1009.3
03 00:56 W 11 16.09 Mostly Cloudy BKN120 11.7 3.9 18.9 11.7 59% 75.64 1009.3
02 23:56 W 17 16.09 Fair CLR 13.9 2.8 47% 75.64 1009.2
02 22:56 SW 13 16.09 A Few Clouds FEW120 12.8 1.7 47% 75.64 1009.3
02 21:56 S 17 16.09 Fair CLR 14.4 0 38% 75.64 1009.4
02 20:56 S 19 16.09 Mostly Cloudy BKN110 15.6 0 35% 75.64 1009.7
02 19:56 S 19 16.09 Fair CLR 18.3 -0.6 28% 75.67 1010.2
02 18:56 SW 19 16.09 Fair CLR 18.9 -3.3 20 16.7 22% 75.79 1011.8
02 17:56 SW 28 G 43 16.09 Partly Cloudy SCT120 19.4 -3.3 21% 75.82 1012.4
02 16:56 SW 30 16.09 Partly Cloudy SCT110 18.9 -2.2 24% 75.87 1013.1
02 15:56 SW 28 16.09 Partly Cloudy SCT095 17.8 -2.8 25% 76 1014.7
02 14:56 SW 28 16.09 A Few Clouds FEW110 18.3 -1.7 26% 76.05 1015.4
02 13:56 W 20 G 41 16.09 Fair CLR 17.8 0 30% 76.15 1016.7
02 12:56 W 30 G 43 16.09 Fair CLR 16.7 -0.6 16.7 0.6 31% 76.23 1017.9
02 11:56 W 28 G 39 16.09 Fair CLR 15.6 -1.1 32% 76.3 1018.9
02 10:56 W 24 16.09 Fair CLR 14.4 -0.6 36% 76.33 1019.4
02 09:56 SW 17 16.09 Fair CLR 12.2 -1.1 40% 76.38 1020.0
02 08:56 S 11 16.09 Fair CLR 8.3 -0.6 54% 7 76.4 1020.6
02 07:56 S 13 16.09 Fair CLR 3.9 -2.2 65% 1 76.43 1021.2
02 06:56 S 11 16.09 Fair CLR 0.6 -3.9 2.2 0 72% -2 76.45 1021.5
02 05:56 S 6 16.09 Fair CLR 0 -4.4 73% 76.45 1021.6
02 04:56 S 6 16.09 Fair CLR 1.1 -4.4 67% 76.48 1021.9
02 03:56 SW 6 16.09 Fair CLR 0.6 -3.9 72% 76.5 1022.1
02 02:56 Calm 16.09 Fair CLR 1.1 -3.9 70% 76.5 1022.1
02 01:56 S 6 16.09 Fair CLR 1.7 -3.9 67% 76.5 1022.3
02 00:56 Calm 16.09 Fair CLR 0 -2.8 10.6 0 82% 76.53 1022.8
01 23:56 Calm 16.09 Fair CLR 2.2 -2.2 73% 76.53 1022.8
01 22:56 Calm 16.09 Fair CLR 3.3 -2.2 68% 76.56 1022.9
01 21:56 Calm 16.09 Fair CLR 6.1 -3.3 51% 76.53 1022.4
01 20:56 Calm 16.09 Fair CLR 6.7 -2.8 51% 76.48 1022.0
01 19:56 N 9 16.09 Fair CLR 9.4 -3.9 39% 8 76.45 1021.7
01 18:56 N 13 16.09 Partly Cloudy SCT065 10.6 -3.9 11.1 7.8 36% 76.43 1021.5
01 17:56 NE 20 16.09 Mostly Cloudy BKN065 10.6 -4.4 35% 76.45 1021.5
01 16:56 N 15 16.09 A Few Clouds FEW065 10.6 -4.4 35% 76.45 1021.5
01 15:56 N 19 G 28 16.09 A Few Clouds FEW060 10 -4.4 36% 8 76.48 1021.7
01 14:56 N 19 16.09 Mostly Cloudy BKN055 10 -3.3 39% 8 76.48 1022.0
01 13:56 N 19 G 28 16.09 Mostly Cloudy BKN049 8.9 -3.3 42% 6 76.5 1022.1
01 12:56 N 22 G 33 16.09 A Few Clouds FEW045 8.3 -2.8 8.3 -1.7 46% 5 76.5 1022.1
01 11:56 N 22 G 30 16.09 Fair CLR 7.2 -3.3 48% 4 76.53 1022.3
01 10:56 N 26 16.09 Fair CLR 5.6 -3.9 51% 2 76.5 1022.3
01 09:56 N 28 G 35 16.09 Fair CLR 5 -4.4 51% 1 76.53 1022.3
01 08:56 N 15 16.09 Fair CLR 2.8 -2.8 67% -1 76.53 1022.5
01 07:56 N 13 16.09 Overcast OVC050 0 -2.8 82% -4 76.5 1022.3
01 06:56 Calm 16.09 Fair CLR -2.2 -3.9 4.4 -2.8 88% 76.45 1022.0
01 05:56 NW 7 16.09 Fair CLR -2.2 -3.9 88% -5 76.43 1021.3
01 04:56 NW 11 16.09 Fair CLR -1.1 -2.8 88% -5 76.4 1021.0
01 03:56 N 9 16.09 A Few Clouds FEW048 -0.6 -2.8 85% -3 76.4 1020.9
01 02:56 N 11 16.09 Fair CLR 1.1 -2.2 79% -2 76.38 1020.6
01 01:56 N 13 16.09 Fair CLR 2.2 -1.7 76% -1 76.38 1020.6
01 00:56 N 13 16.09 Overcast OVC048 4.4 1.1 8.9 3.9 79% 2 76.38 1020.4
30 23:56 Vrbl 6 16.09 Overcast BKN036 OVC043 5 1.7 79% 76.35 1019.9
30 22:56 NE 13 16.09 Light Rain SCT039 BKN060 OVC080 5.6 1.7 76% 3 76.33 1019.8
30 21:56 SW 6 16.09 Overcast BKN060 OVC075 6.7 1.7 71% 76.28 1019.1
30 20:56 W 7 16.09 Overcast BKN070 OVC085 7.2 0 61% 6 76.25 1018.8
Date Time (cdt) Wind (kph) Vis. (km) Weather Sky Cond. Air Dwpt Max. Min. Relative Humidity Wind Chill (°C) Heat Index (°C) altimeter (cm) sea level (mb) 1 hr 3 hr 6 hr
6 hour
Temperature (ºC) Pressure Precipitation (cm)